Location: New Canada
(47.1017°N, 68.5042°W)
Time: 22:42:31
(UTC+00:00)

BEESAT 3 - Visible Passes

Search period start: 31 March 2023 00:00
Search period end: 10 April 2023 00:00
Orbit: 410 x 435 km, 64.9° (Epoch: 30 March)

Date Brightness Start Highest point End Pass type
(mag) Time Alt. Az. Time Alt. Az. Time Alt. Az.
31 Mar ? 07:17:34 20° NNE 07:17:34 20° NNE 07:18:47 10° NNE visible
01 Apr ? 06:33:11 11° NE 06:33:11 11° NE 06:33:22 10° NE visible
01 Apr ? 08:06:13 13° NNW 08:06:13 13° NNW 08:07:52 10° N visible
02 Apr ? 07:21:36 16° N 07:21:36 16° N 07:22:45 10° NNE visible
03 Apr ? 06:36:47 12° NNE 06:36:47 12° NNE 06:37:11 10° NNE visible
04 Apr ? 07:24:45 11° NNW 07:24:45 11° NNW 07:25:20 10° N visible
05 Apr ? 06:39:30 12° N 06:39:30 12° N 06:39:51 10° N visible
